SCP
0 0 0 0 0 0 0 0 0 0 0 0 0 0 0 0 0 0 0 0 0 0 0 0 0 0 0 0 0 0 1 1 1 1 1 1 1 1
0 0 0 0 0 0 0 0 0 0 0 0 0 0 0 0 0 0 0 0 0 0 0 0 0 0 0 0 0 0 0 0 1 1 1 1 1 1
0 0 0 0 0 0 0 0 0 0 0 0 0 0 0 0 0 0 0 0 0 0 0 0 0 0 0 0 0 0 0 0 0 1 1 1 1 1
0 0 0 0 0 0 0 0 0 0 0 0 0 0 0 0 0 0 0 0 0 0 0 0 0 0 0 0 0 0 0 0 0 0 0 1 1 1
0 0 0 0 0 0 0 0 0 0 0 0 0 0 0 0 0 0 0 0 0 0 0 0 0 0 0 0 0 0 0 0 0 0 0 0 0 1
0 0 0 0 0 0 0 0 0 0 0 0 0 0 0 0 0 0 0 0 0 0 0 0 0 0 0 0 0 0 0 0 0 0 0 0 0 0
0 0 0 0 0 0 0 0 0 0 0 0 0 0 0 0 0 0 0 0 0 0 0 0 0 0 0 0 0 0 0 0 0 0 0 0 0 0
0 0 0 0 0 0 0 0 0 0 0 0 0 0 0 0 0 0 0 0 0 0 0 0 0 0 0 0 0 0 0 0 0 0 0 0 0 0
0 0 0 0 0 0 0 0 0 0 0 0 0 0 0 0 0 0 0 0 0 0 0 0 0 0 0 0 0 0 0 0 0 0 0 0 0 0
0 0 0 0 0 0 0 0 0 0 0 0 0 0 0 0 0 0 0 0 0 0 0 0 0 0 0 0 0 0 0 0 0 0 0 0 0 0
0 0 0 0 0 0 0 0 0 0 0 0 0 0 0 0 0 0 0 -0 -0 -0 -0 0 0 0 0 0 0 0 0 0 0 0 0 0 0 0
0 0 0 0 0 0 0 0 0 0 0 0 0 0 0 0 0 -0 -0 -0 -0 -0 -0 -0 0 0 0 0 0 0 0 0 0 0 0 0 0 0
0 0 0 0 0 0 0 0 0 -0 -0 -0 -0 -0 -0 -0 -0 -0 -0 -0 -0 -0 -0 -0 -0 -0 0 0 0 0 0 0 0 0 0 0 0 0
0 0 0 0 0 0 0 0 0 -0 -0 -0 -0 -0 -0 -0 -0 -0 -0 -0 -0 -0 -0 -0 -0 -0 -0 0 0 0 0 0 0 0 0 0 0 0
0 0 0 0 0 0 0 0 0 -0 -0 -0 -0 -0 -0 -0 -0 -0 -0 -0 0 -0 -0 -0 -0 -0 -0 0 0 0 0 0 0 0 0 0 0 0
0 0 0 0 0 0 0 0 0 0 0 0 -0 -0 -0 -0 -0 -0 -0 -0 0 0 0 0 0 0 0 0 0 0 0 0 0 0 0 0 0 0
0 0 0 0 0 0 0 0 0 0 0 0 0 -0 -0 -0 -0 -0 -0 0 0 0 0 0 0 0 0 0 0 0 0 0 0 0 0 0 0 0
0 0 0 0 0 0 0 0 0 0 0 0 -0 -0 -0 -0 -0 -0 -0 0 0 0 0 0 0 0 0 0 0 0 0 0 0 0 0 0 0 0
0 0 0 0 0 0 0 0 0 0 0 0 -0 -0 -0 -0 -0 0 0 0 0 0 0 0 0 0 0 0 0 0 0 0 0 0 0 0 0 0
0 0 0 0 0 0 0 0 0 0 0 0 -0 -0 -0 -0 -0 0 0 0 0 0 0 0 0 0 0 0 0 0 0 0 0 0 0 0 0 0
0 0 0 0 0 0 0 0 0 0 0 0 0 0 0 0 0 0 0 0 0 0 0 0 0 0 0 0 0 0 0 0 0 0 0 0 0 0
0 0 0 0 0 0 0 0 0 0 0 0 0 0 0 0 0 0 0 0 0 0 0 0 0 0 0 0 0 0 0 0 0 0 0 0 0 0
0 0 0 0 0 0 0 0 0 0 0 0 0 0 0 0 0 0 0 0 0 0 0 0 0 0 0 0 0 0 0 0 0 0 0 0 0 0
Wind_Speed
8 8 8 8 8 7 7 7 9 14 15 14 8 7 6 8 14 13 14 19 24 27 29 30 30 30 31 30 29 28 29 29 27 28 29 29 32 34
8 11 10 9 9 7 6 7 7 9 13 13 12 10 10 12 15 14 15 22 25 28 28 27 26 28 29 30 29 28 28 29 30 30 31 31 30 31
10 12 14 13 8 8 7 7 8 7 11 14 12 12 14 14 13 12 13 14 14 23 28 28 26 25 27 27 28 28 29 29 30 31 32 31 29 31
12 12 13 11 9 9 8 10 9 7 7 14 15 12 13 13 15 15 13 12 12 19 25 26 25 23 23 24 26 27 27 28 28 29 30 30 30 32
9 11 13 12 10 9 11 11 8 8 6 10 14 12 12 10 13 14 14 12 12 13 18 20 22 23 23 23 23 24 25 26 27 27 28 29 31 33
8 10 11 11 13 13 12 10 9 10 9 9 11 11 12 11 10 12 14 10 11 10 15 16 18 22 23 22 22 21 22 25 28 29 28 29 31 33
10 9 11 18 22 18 16 14 13 12 11 12 13 13 12 11 11 11 15 13 12 8 11 11 10 9 10 15 17 20 23 26 28 29 28 30 31 33
14 13 14 14 18 25 28 28 25 19 17 16 15 17 18 16 14 13 14 16 15 5 7 8 5 8 8 8 15 19 21 24 26 26 26 26 26 27
13 14 14 15 20 13 20 26 22 28 29 21 18 19 20 18 17 17 16 18 18 11 11 14 8 11 9 11 20 21 22 22 20 16 16 20 24 25
13 14 14 13 14 21 18 17 16 17 22 18 15 17 17 16 15 17 18 19 18 13 11 13 8 8 6 6 16 20 18 13 14 19 23 24 24 24
13 13 15 13 25 31 22 20 20 17 22 28 30 27 29 29 24 15 14 14 15 12 6 7 5 4 3 4 8 14 12 16 20 22 24 25 25 23
12 11 18 23 28 31 21 17 19 18 19 20 19 19 17 19 24 15 12 12 13 11 5 4 3 2 3 2 3 2 7 15 21 23 24 25 25 14
13 11 11 26 30 32 29 15 22 25 18 16 14 14 12 10 10 10 10 10 11 11 7 7 5 3 2 1 3 4 2 5 8 11 18 23 23 16
13 12 13 25 30 31 23 25 32 25 12 13 14 13 12 11 10 10 11 10 8 9 9 10 8 4 4 3 1 2 4 4 6 7 7 17 18 20
13 24 23 27 27 18 23 30 24 13 13 14 14 13 12 12 12 11 9 7 5 4 6 8 5 2 3 4 4 3 3 4 6 7 6 5 4 8
14 14 20 24 20 21 20 16 12 12 15 14 15 14 13 11 10 9 9 5 3 2 4 7 7 4 2 3 5 4 4 5 5 7 6 5 5 6
18 7 7 10 10 11 11 11 12 13 13 13 14 14 14 12 10 8 6 4 2 1 3 5 7 7 8 5 6 7 7 6 6 5 5 5 4 4
20 11 10 10 12 13 14 14 13 13 13 14 14 14 14 12 10 8 6 3 1 2 3 4 5 4 4 9 10 7 6 5 5 5 5 5 4 3
13 10 10 11 12 13 13 14 14 14 14 13 13 14 13 11 9 7 4 1 2 3 3 4 4 3 3 4 5 6 4 5 5 4 3 3 4 3
10 10 11 12 12 13 13 14 14 14 13 13 13 13 12 9 8 6 3 2 2 3 3 3 5 5 3 2 3 3 5 4 4 4 3 3 3 3
11 11 11 12 12 13 13 14 14 14 15 14 13 13 10 8 7 5 3 4 4 3 3 3 4 6 2 2 4 3 3 3 4 4 4 4 3 3
12 12 12 12 13 13 13 13 14 14 14 13 12 11 9 7 6 6 5 4 4 3 2 2 3 3 3 3 3 2 2 2 2 6 6 5 4 4
12 13 12 12 12 12 13 14 16 14 13 12 11 9 7 6 5 5 4 4 3 3 2 2 2 2 2 2 2 2 2 2 2 3 2 5 3 1
Wind_Direction
314 311 309 307 300 292 288 292 299 306 304 303 298 291 296 301 298 298 293 289 285 279 271 263 256 254 256 261 263 259 251 245 239 232 229 228 228 228
326 318 312 308 303 298 297 297 291 292 295 299 304 309 308 301 293 289 289 289 288 285 282 272 260 251 250 254 258 260 258 251 242 235 232 231 230 225
322 317 313 311 311 317 313 309 302 296 298 303 307 309 308 306 304 297 295 293 291 286 283 277 268 256 250 250 252 254 255 254 249 241 235 230 226 218
323 323 324 326 322 320 312 305 296 291 299 304 304 303 303 304 304 303 299 296 292 292 289 285 279 269 259 255 253 252 250 248 248 247 240 230 220 212
322 327 323 318 311 307 302 296 288 299 288 288 294 298 298 300 302 301 297 294 293 294 295 293 287 280 272 265 261 256 251 247 244 243 242 232 217 206
314 313 313 312 310 308 304 296 301 301 289 284 289 292 293 292 292 298 299 294 294 295 294 288 279 274 273 271 266 260 255 250 247 243 238 230 214 200
316 309 308 313 314 315 317 316 312 307 305 303 300 298 294 296 293 293 293 293 285 282 287 283 274 270 271 269 264 258 256 254 250 244 235 220 203 191
318 316 311 309 312 319 316 313 312 310 309 304 300 297 294 290 289 294 300 297 293 264 263 275 271 273 269 261 263 261 259 257 252 241 225 205 184 170
310 310 312 312 315 303 305 311 310 308 304 297 291 287 285 288 296 299 295 292 287 285 279 277 257 262 261 264 269 267 265 256 240 212 175 154 147 147
303 303 304 305 307 312 312 313 307 305 301 298 289 287 291 298 298 296 294 290 283 274 255 267 259 252 252 254 263 263 258 226 177 151 143 142 143 146
301 303 309 309 311 320 323 316 312 309 309 308 309 308 308 306 303 299 294 295 296 295 277 263 260 246 251 254 256 248 210 165 152 149 148 149 151 151
306 304 310 314 317 323 322 317 314 311 309 309 308 306 301 296 298 295 296 297 300 298 282 264 257 231 268 315 318 254 173 161 157 156 155 155 154 143
314 312 309 317 323 326 326 320 311 313 312 311 307 302 296 292 292 289 290 291 290 284 307 308 280 228 215 350 357 356 68 128 137 149 155 154 151 142
314 311 313 323 329 329 328 319 319 322 315 308 303 302 303 301 298 296 292 285 271 281 297 293 270 224 176 154 131 15 23 92 115 116 126 154 156 156
311 313 325 331 331 329 321 323 324 317 310 307 306 305 302 297 299 300 293 277 255 277 312 307 282 197 157 152 145 144 96 63 101 114 108 111 124 153
314 319 330 330 328 323 322 320 314 307 309 307 306 303 301 298 300 303 301 295 267 281 327 357 9 39 77 101 130 119 106 107 96 103 99 82 82 101
325 323 321 323 321 318 318 317 314 311 310 308 306 306 305 304 305 306 296 290 285 345 352 5 24 41 48 65 91 88 86 78 95 100 103 96 82 98
331 325 322 320 320 321 321 319 313 309 310 310 307 305 305 308 310 308 302 301 31 52 30 11 358 357 44 51 53 81 76 86 103 106 105 110 116 110
327 319 320 320 318 317 316 312 309 308 309 308 307 306 305 309 310 311 316 13 66 60 43 22 2 353 65 75 40 38 93 119 117 101 88 100 129 146
321 322 320 317 316 315 313 309 307 309 311 310 309 307 310 315 317 320 343 56 67 59 51 35 25 21 49 95 110 56 60 102 109 111 98 75 81 123
320 320 317 315 313 312 310 307 307 309 310 311 311 312 319 324 330 346 21 58 52 43 41 33 17 15 5 33 76 66 36 63 113 123 123 120 130 148
319 318 316 312 311 309 308 308 310 310 312 313 314 319 330 340 354 13 24 27 31 40 49 27 0 1 27 66 79 80 74 53 90 149 140 136 148 171
316 316 315 311 308 308 309 310 311 311 312 314 317 327 342 351 360 12 20 28 36 37 34 20 16 29 46 59 72 72 76 81 90 112 146 183 180 345